NORTHEAST SUFFOLK  -  Winter Weather Advisory Winter Weather Advisory        NORTHERN NASSAU  -  Winter Weather Advisory Winter Weather Advisory        NORTHWEST SUFFOLK  -  Winter Weather Advisory Winter Weather Advisory        SOUTHEAST SUFFOLK  -  Winter Weather Advisory Winter Weather Advisory        SOUTHERN NASSAU  -  Winter Weather Advisory Winter Weather Advisory        SOUTHWEST SUFFOLK  -  Winter Weather Advisory Winter Weather Advisory      

Active alerts

Northern Nassau
  Details for Northern Nassau Winter Weather Advisory
Southern Nassau
  Details for Southern Nassau Winter Weather Advisory
Northwest Suffolk
  Details for Northwest Suffolk Winter Weather Advisory
Southwest Suffolk
  Details for Southwest Suffolk Winter Weather Advisory
Northeast Suffolk
  Details for Northeast Suffolk Winter Weather Advisory
Southeast Suffolk
  Details for Southeast Suffolk Winter Weather Advisory


WXM80 ListenWXM80 Stop

You find our weather info also at:

UK Metoffice

WeatherCloud

Weather Underground

Northeastern Weather Network

AWEKAS

Citizen Weather Observer Program (CWOP)

HAMweather, WeatherForYou, PWS Weather


Weather Underground History page Text

Daily Summary for February 27, 2017 Units:  Metric    English   Both
« Previous Day
Next Day »
Daily Weekly Monthly Yearly Custom
  High: Low: Average:
Temperature: 12.7 °C -1.1 °C 5.9 °C
Dew Point: 3.2 °C -6.1 °C -1.3 °C
Humidity: 78 % 34 % 61 %
Wind Speed: 16.3 km/h 0 km/h 6.1 km/h
Wind Gust: 25.9 km/h - -
Wind:- - SW
Pressure: 1029.3 hPa 1023.9 hPa -
Precipitation: 0 mm    
Historical Graphs
 
 
Tabular Data for February 27, 2017
Time Temperature Dew Point Pressure Wind Wind Speed Wind Gust Humidity Rainfall Rate (Hourly)
00:01 0.7 °C -5.6 °C 1024.3 hPa SW 1.8 km/h 3.7 km/h 63 % 0 mm
00:06 0.6 °C -5.7 °C 1023.9 hPa SW 2.3 km/h 5.6 km/h 63 % 0 mm
00:11 0.4 °C -5.6 °C 1023.9 hPa SW 0.2 km/h 3.7 km/h 64 % 0 mm
00:12 0.4 °C -5.6 °C 1023.9 hPa SW 1 km/h 1.9 km/h 64 % 0 mm
00:17 0.3 °C -5.7 °C 1023.9 hPa Calm     64 % 0 mm
00:22 0.3 °C -5.5 °C 1023.9 hPa Calm     65 % 0 mm
00:27 0.2 °C -5.6 °C 1023.9 hPa SW 2.3 km/h 3.2 km/h 65 % 0 mm
00:32 0.2 °C -5.7 °C 1024.3 hPa SW 0.3 km/h 1.9 km/h 65 % 0 mm
00:37 0.2 °C -5.7 °C 1024.3 hPa Calm   3.7 km/h 65 % 0 mm
00:43 0.1 °C -5.7 °C 1024.3 hPa SW 0.2 km/h 1.9 km/h 65 % 0 mm
00:48 0.1 °C -5.6 °C 1024.3 hPa SW 1.1 km/h 3.2 km/h 66 % 0 mm
00:53 0 °C -5.6 °C 1024.3 hPa SW 1.6 km/h 5.6 km/h 66 % 0 mm
00:58 0 °C -5.4 °C 1024.3 hPa SW 1.8 km/h 9.3 km/h 67 % 0 mm
01:03 -0.1 °C -5.4 °C 1024.6 hPa SW 2.3 km/h 5.6 km/h 67 % 0 mm
01:08 -0.1 °C -5.4 °C 1024.6 hPa SW 2.9 km/h 5.6 km/h 67 % 0 mm
01:13 -0.1 °C -5.5 °C 1024.9 hPa WSW 1.8 km/h 5.6 km/h 67 % 0 mm
01:18 -0.1 °C -5.7 °C 1024.6 hPa WSW 0.8 km/h 5.6 km/h 66 % 0 mm
01:23 -0.1 °C -5.7 °C 1024.9 hPa SW 1.4 km/h 7.4 km/h 66 % 0 mm
01:28 -0.1 °C -5.7 °C 1024.6 hPa SW 1.6 km/h 1.9 km/h 66 % 0 mm
01:33 -0.1 °C -5.7 °C 1024.9 hPa SW 0.3 km/h 3.7 km/h 66 % 0 mm
01:38 -0.1 °C -5.7 °C 1024.9 hPa Calm   3.2 km/h 66 % 0 mm
01:43 -0.1 °C -5.7 °C 1024.9 hPa SW 1.6 km/h 8 km/h 66 % 0 mm
01:48 -0.1 °C -5.7 °C 1024.9 hPa SW 3.2 km/h 8 km/h 66 % 0 mm
01:53 -0.1 °C -5.9 °C 1024.9 hPa Calm   3.2 km/h 65 % 0 mm
01:55 -0.1 °C -5.9 °C 1024.9 hPa WSW 0.2 km/h 1.9 km/h 65 % 0 mm
01:58 -0.1 °C -5.9 °C 1024.9 hPa Calm   1.9 km/h 65 % 0 mm
02:03 -0.1 °C -5.9 °C 1024.9 hPa WSW 2.4 km/h 5.6 km/h 65 % 0 mm
02:08 -0.1 °C -5.9 °C 1024.6 hPa Calm   1.9 km/h 65 % 0 mm
02:13 -0.1 °C -5.9 °C 1024.9 hPa WSW 0.2 km/h 1.9 km/h 65 % 0 mm
02:18 -0.2 °C -5.9 °C 1024.9 hPa Calm     65 % 0 mm
02:23 -0.2 °C -5.9 °C 1024.9 hPa Calm     65 % 0 mm
02:28 -0.2 °C -6 °C 1024.9 hPa Calm     65 % 0 mm
02:33 -0.3 °C -5.9 °C 1024.9 hPa Calm     66 % 0 mm
02:38 -0.3 °C -5.9 °C 1024.9 hPa Calm     66 % 0 mm
02:43 -0.3 °C -5.9 °C 1024.9 hPa Calm     66 % 0 mm
02:48 -0.4 °C -5.8 °C 1024.9 hPa Calm     67 % 0 mm
02:53 -0.5 °C -5.9 °C 1024.9 hPa Calm     67 % 0 mm
02:58 -0.6 °C -5.7 °C 1024.9 hPa Calm   1.9 km/h 68 % 0 mm
03:03 -0.7 °C -5.8 °C 1024.9 hPa Calm     68 % 0 mm
03:09 -0.7 °C -5.9 °C 1024.9 hPa Calm   1.9 km/h 68 % 0 mm
03:14 -0.8 °C -6 °C 1024.9 hPa WSW 1 km/h 3.7 km/h 68 % 0 mm
03:19 -0.8 °C -6 °C 1024.9 hPa Calm   3.7 km/h 68 % 0 mm
03:24 -0.9 °C -5.9 °C 1025.3 hPa WSW 0.3 km/h 1.9 km/h 69 % 0 mm
03:29 -1 °C -6 °C 1025.3 hPa WSW 2.4 km/h 5.6 km/h 69 % 0 mm
03:34 -1.1 °C -5.8 °C 1025.3 hPa WSW 0.6 km/h 3.7 km/h 70 % 0 mm
03:39 -1.1 °C -5.8 °C 1025.3 hPa SW 2.4 km/h 6.4 km/h 70 % 0 mm
03:44 -1.1 °C -6.1 °C 1025.3 hPa SSW 2.1 km/h 5.6 km/h 69 % 0 mm
03:49 -1.1 °C -6 °C 1025.6 hPa SSW 2.3 km/h 5.6 km/h 69 % 0 mm
03:54 -1 °C -6 °C 1025.6 hPa SSW 2.7 km/h 5.6 km/h 69 % 0 mm
03:59 -0.9 °C -5.9 °C 1025.6 hPa SW 4.7 km/h 6.4 km/h 69 % 0 mm
04:04 -0.8 °C -5.8 °C 1025.6 hPa SW 1.8 km/h 5.6 km/h 69 % 0 mm
04:09 -0.8 °C -5.9 °C 1025.6 hPa SSW 3.1 km/h 9.3 km/h 68 % 0 mm
04:14 -0.7 °C -5.8 °C 1026 hPa SW 1.8 km/h 9.3 km/h 68 % 0 mm
04:19 -0.5 °C -5.7 °C 1026 hPa SW 3.2 km/h 13 km/h 68 % 0 mm
04:24 -0.3 °C -5.5 °C 1026 hPa SW 6.3 km/h 11.1 km/h 68 % 0 mm
04:29 -0.2 °C -5.6 °C 1026 hPa SW 7.6 km/h 11.1 km/h 67 % 0 mm
04:34 0 °C -5.6 °C 1026.3 hPa SSW 8.2 km/h 13 km/h 66 % 0 mm
04:39 0.2 °C -5.4 °C 1026 hPa SSW 5.8 km/h 9.3 km/h 66 % 0 mm
04:44 0.3 °C -5.3 °C 1026.3 hPa SSW 6.8 km/h 9.3 km/h 66 % 0 mm
04:49 0.3 °C -5.3 °C 1026.3 hPa SSW 6.3 km/h 9.3 km/h 66 % 0 mm
04:54 0.4 °C -5.2 °C 1026.6 hPa WSW 6.4 km/h 9.3 km/h 66 % 0 mm
04:59 0.5 °C -4.9 °C 1026.6 hPa SSW 8 km/h 13 km/h 67 % 0 mm
05:04 0.6 °C -4.9 °C 1026.6 hPa SSW 6.6 km/h 14.5 km/h 67 % 0 mm
05:09 0.6 °C -4.8 °C 1026.6 hPa SW 3.9 km/h 8 km/h 67 % 0 mm
05:15 0.6 °C -4.8 °C 1026.6 hPa WSW 7.4 km/h 14.8 km/h 67 % 0 mm
05:20 0.7 °C -4.8 °C 1026.6 hPa WSW 6.4 km/h 16.1 km/h 67 % 0 mm
05:25 0.7 °C -4.7 °C 1026.6 hPa SW 5.6 km/h 14.8 km/h 67 % 0 mm
05:30 0.8 °C -4.7 °C 1027 hPa WSW 6.3 km/h 8 km/h 67 % 0 mm
05:35 0.8 °C -4.4 °C 1027 hPa SW 7.2 km/h 11.1 km/h 68 % 0 mm
05:40 0.8 °C -4.4 °C 1027 hPa SSW 6.4 km/h 9.7 km/h 68 % 0 mm
05:45 0.8 °C -4.4 °C 1027 hPa SW 6.6 km/h 11.1 km/h 68 % 0 mm
05:50 0.8 °C -4.4 °C 1027 hPa SW 6.3 km/h 14.8 km/h 68 % 0 mm
05:55 0.9 °C -4.3 °C 1027 hPa SW 7.1 km/h 14.8 km/h 68 % 0 mm
06:00 0.9 °C -4.3 °C 1027 hPa SW 11.7 km/h 14.8 km/h 68 % 0 mm
06:05 0.9 °C -4.3 °C 1027.3 hPa SW 5.5 km/h 7.4 km/h 68 % 0 mm
06:10 0.9 °C -4.3 °C 1027.3 hPa SSW 7.9 km/h 16.7 km/h 68 % 0 mm
06:15 0.9 °C -4.3 °C 1027.3 hPa WSW 6 km/h 11.1 km/h 68 % 0 mm
06:20 0.9 °C -4.3 °C 1027.3 hPa SW 9.3 km/h 18.5 km/h 68 % 0 mm
06:25 0.9 °C -4.3 °C 1027.3 hPa SW 6.9 km/h 11.3 km/h 68 % 0 mm
06:30 0.9 °C -4.3 °C 1027.3 hPa SW 9 km/h 18.5 km/h 68 % 0 mm
06:35 0.9 °C -4.3 °C 1027.3 hPa SW 7.2 km/h 13 km/h 68 % 0 mm
06:40 0.9 °C -4.2 °C 1027.3 hPa SSW 5.8 km/h 11.1 km/h 69 % 0 mm
06:45 0.9 °C -4.2 °C 1027.3 hPa SSW 8.5 km/h 13 km/h 69 % 0 mm
06:50 0.9 °C -4.2 °C 1027.3 hPa SW 8.5 km/h 11.1 km/h 69 % 0 mm
06:55 0.9 °C -4.2 °C 1027 hPa SW 6.1 km/h 9.3 km/h 69 % 0 mm
07:00 1 °C -4.1 °C 1027.3 hPa SW 4.5 km/h 9.3 km/h 69 % 0 mm
07:05 1.1 °C -4 °C 1027.3 hPa SSW 6.4 km/h 11.1 km/h 69 % 0 mm
07:10 1.2 °C -3.8 °C 1027.3 hPa SW 8 km/h 11.1 km/h 69 % 0 mm
07:15 1.3 °C -3.9 °C 1027.3 hPa SSW 5.5 km/h 7.4 km/h 68 % 0 mm
07:21 1.5 °C -3.8 °C 1027.3 hPa South 7.1 km/h 13 km/h 68 % 0 mm
07:26 1.7 °C -3.8 °C 1027.7 hPa SW 8.4 km/h 13 km/h 67 % 0 mm
07:31 1.8 °C -3.8 °C 1028 hPa WSW 8.5 km/h 11.1 km/h 66 % 0 mm
07:36 2 °C -3.7 °C 1028 hPa SW 6.8 km/h 11.1 km/h 66 % 0 mm
07:41 2.2 °C -3.6 °C 1028 hPa SSW 8.2 km/h 11.1 km/h 66 % 0 mm
07:46 2.3 °C -3.4 °C 1028.3 hPa SW 7.6 km/h 13 km/h 66 % 0 mm
07:51 2.5 °C -3.2 °C 1028.3 hPa SW 13.2 km/h 20.9 km/h 66 % 0 mm
07:56 2.7 °C -3.1 °C 1028.3 hPa West 7.9 km/h 14.5 km/h 66 % 0 mm
08:01 2.9 °C -2.8 °C 1028.3 hPa SSW 11.4 km/h 14.8 km/h 66 % 0 mm
08:06 3.2 °C -2.8 °C 1028.3 hPa SW 5.8 km/h 16.1 km/h 65 % 0 mm
08:11 3.4 °C -2.3 °C 1028.3 hPa SSW 9.5 km/h 16.1 km/h 66 % 0 mm
08:16 3.7 °C -2.4 °C 1028.7 hPa WSW 6.1 km/h 13 km/h 64 % 0 mm
08:21 4 °C -2.2 °C 1028.7 hPa SSW 12.1 km/h 18.5 km/h 64 % 0 mm
08:26 4.2 °C -2.2 °C 1028.7 hPa SSW 10.9 km/h 16.7 km/h 63 % 0 mm
08:31 4.4 °C -2.3 °C 1028.7 hPa WSW 10.3 km/h 14.8 km/h 62 % 0 mm
08:36 4.6 °C -2.6 °C 1028.7 hPa West 12.2 km/h 22.2 km/h 60 % 0 mm
08:41 4.8 °C -2.1 °C 1028.7 hPa SW 14.2 km/h 18.5 km/h 61 % 0 mm
08:47 5 °C -2.1 °C 1028.7 hPa SW 10.3 km/h 16.7 km/h 60 % 0 mm
08:52 5.3 °C -2.1 °C 1028.7 hPa WSW 10.5 km/h 18.5 km/h 59 % 0 mm
08:57 5.6 °C -1.8 °C 1028.7 hPa WNW 7.1 km/h 11.1 km/h 59 % 0 mm
09:02 5.8 °C -1.8 °C 1028.7 hPa SW 12.2 km/h 18.5 km/h 58 % 0 mm
09:07 6 °C -2.1 °C 1028.7 hPa SW 9.8 km/h 22.2 km/h 56 % 0 mm
09:12 6.2 °C -1.9 °C 1028.7 hPa SSW 11.4 km/h 19.3 km/h 56 % 0 mm
09:17 6.4 °C -1.9 °C 1028.7 hPa SW 7.2 km/h 18.5 km/h 55 % 0 mm
09:22 6.7 °C -1.7 °C 1028.7 hPa SW 4 km/h 14.8 km/h 55 % 0 mm
09:27 6.9 °C -1.7 °C 1028.7 hPa WSW 10.3 km/h 17.7 km/h 54 % 0 mm
09:32 7.2 °C -1.8 °C 1028.7 hPa SW 8.9 km/h 11.3 km/h 53 % 0 mm
09:37 7.3 °C -1.7 °C 1028.7 hPa SW 6 km/h 11.1 km/h 53 % 0 mm
09:42 7.5 °C -2 °C 1028.7 hPa SSW 10.8 km/h 16.7 km/h 51 % 0 mm
09:47 7.7 °C -2.1 °C 1028.7 hPa SSW 7.9 km/h 13 km/h 50 % 0 mm
09:52 7.8 °C -1.7 °C 1029 hPa SSW 8.7 km/h 18.5 km/h 51 % 0 mm
09:57 8 °C -2.1 °C 1029.3 hPa South 10.8 km/h 18.5 km/h 49 % 0 mm
10:02 8.2 °C -2.2 °C 1029.3 hPa South 11.6 km/h 17.7 km/h 48 % 0 mm
10:07 8.3 °C -2.1 °C 1029 hPa SW 10.3 km/h 16.7 km/h 48 % 0 mm
10:12 8.4 °C -2.2 °C 1029 hPa SSW 6.3 km/h 20.4 km/h 47 % 0 mm
10:17 8.7 °C -1.7 °C 1029 hPa WSW 5.3 km/h 11.1 km/h 48 % 0 mm
10:22 8.8 °C -2.4 °C 1029.3 hPa West 10.8 km/h 24.1 km/h 45 % 0 mm
10:27 8.9 °C -2.4 °C 1029 hPa WSW 11.3 km/h 17.7 km/h 45 % 0 mm
10:33 9.1 °C -2.5 °C 1029 hPa West 9.7 km/h 14.8 km/h 44 % 0 mm
10:38 9.3 °C -2.1 °C 1029 hPa West 1.8 km/h 5.6 km/h 45 % 0 mm
10:43 9.6 °C -1.8 °C 1029 hPa SW 7.2 km/h 13 km/h 45 % 0 mm
10:48 9.9 °C -1.4 °C 1029 hPa WSW 4 km/h 14.8 km/h 45 % 0 mm
10:49 10 °C -1.7 °C 1028.7 hPa West 10.5 km/h 17.7 km/h 44 % 0 mm
10:54 10.3 °C -2.1 °C 1029 hPa West 12.6 km/h 16.1 km/h 42 % 0 mm
10:59 10.5 °C -1.9 °C 1028.7 hPa WSW 4.8 km/h 11.1 km/h 42 % 0 mm
11:04 10.6 °C -2.1 °C 1028.7 hPa SW 11.4 km/h 18.5 km/h 41 % 0 mm
11:09 10.7 °C -1.7 °C 1029 hPa SW 12.7 km/h 20.9 km/h 42 % 0 mm
11:14 10.7 °C -1.7 °C 1028.7 hPa SSW 8.5 km/h 18.5 km/h 42 % 0 mm
11:19 10.7 °C -1.7 °C 1028.7 hPa SSW 9 km/h 16.7 km/h 42 % 0 mm
11:24 10.8 °C -1.9 °C 1029 hPa SSW 6.1 km/h 13 km/h 41 % 0 mm
11:29 11 °C -1.4 °C 1029 hPa SW 7.2 km/h 14.5 km/h 42 % 0 mm
11:34 11.2 °C -0.9 °C 1028.7 hPa SW 8.2 km/h 11.1 km/h 43 % 0 mm
11:39 11.4 °C -1.8 °C 1028.7 hPa SSW 13.4 km/h 20.4 km/h 40 % 0 mm
11:44 11.5 °C -1.7 °C 1028.7 hPa SSW 9.3 km/h 11.3 km/h 40 % 0 mm
11:49 11.6 °C -1.3 °C 1028.7 hPa SSW 4.5 km/h 14.5 km/h 41 % 0 mm
11:54 11.5 °C -1.7 °C 1028.7 hPa SSW 12.7 km/h 20.4 km/h 40 % 0 mm
11:58 11.4 °C -1.7 °C 1028.7 hPa WSW 5.3 km/h 11.1 km/h 40 % 0 mm
12:03 11.4 °C -1.7 °C 1028.7 hPa South 13.4 km/h 18.5 km/h 40 % 0 mm
12:08 11.4 °C -2.1 °C 1028.3 hPa SW 13.5 km/h 19.3 km/h 39 % 0 mm
12:13 11.4 °C -2.1 °C 1028.3 hPa WSW 8.2 km/h 16.7 km/h 39 % 0 mm
12:18 11.7 °C -2.2 °C 1028.3 hPa SW 11.9 km/h 22.2 km/h 38 % 0 mm
12:23 11.7 °C -2.5 °C 1028 hPa NW 11.7 km/h 20.4 km/h 37 % 0 mm
12:28 11.8 °C -2.1 °C 1028 hPa WSW 12.6 km/h 20.4 km/h 38 % 0 mm
12:33 11.9 °C -1.6 °C 1028 hPa WSW 4.7 km/h 16.1 km/h 39 % 0 mm
12:38 11.9 °C -1.6 °C 1027.7 hPa SW 4.8 km/h 19.3 km/h 39 % 0 mm
12:43 12.1 °C -1.8 °C 1027.7 hPa SSW 9.7 km/h 16.1 km/h 38 % 0 mm
12:48 12.1 °C -1.8 °C 1027.7 hPa SW 11.3 km/h 16.1 km/h 38 % 0 mm
12:53 12.1 °C -1.8 °C 1027.7 hPa WSW 13 km/h 18.5 km/h 38 % 0 mm
12:58 12.2 °C -1.4 °C 1027.7 hPa SSW 10 km/h 11.3 km/h 39 % 0 mm
13:03 12.3 °C -1.6 °C 1027.7 hPa SSW 4 km/h 11.1 km/h 38 % 0 mm
13:08 12.5 °C -1.4 °C 1027.3 hPa SW 5.5 km/h 13 km/h 38 % 0 mm
13:13 12.6 °C -1.4 °C 1027.3 hPa SW 8 km/h 20.4 km/h 38 % 0 mm
13:18 12.6 °C -1.7 °C 1027.3 hPa SW 8.9 km/h 20.4 km/h 37 % 0 mm
13:23 12.4 °C -2.2 °C 1027.3 hPa NW 7.6 km/h 11.1 km/h 36 % 0 mm
13:28 12.6 °C -1.4 °C 1027.7 hPa South 5.6 km/h 11.3 km/h 38 % 0 mm
13:33 12.7 °C -2.4 °C 1027.3 hPa West 8 km/h 13 km/h 35 % 0 mm
13:38 12.7 °C -2.8 °C 1027.3 hPa South 11.6 km/h 20.4 km/h 34 % 0 mm
13:43 12.7 °C -2.4 °C 1027.3 hPa SW 10.3 km/h 20.4 km/h 35 % 0 mm
13:49 12.6 °C -2.4 °C 1027.3 hPa SW 7.1 km/h 17.7 km/h 35 % 0 mm
13:54 12.6 °C -2.5 °C 1027.3 hPa SSW 9.2 km/h 20.4 km/h 35 % 0 mm
13:59 12.4 °C -1.9 °C 1027 hPa South 6.4 km/h 11.1 km/h 37 % 0 mm
14:04 12.3 °C -2.3 °C 1027 hPa WSW 9.8 km/h 14.8 km/h 36 % 0 mm
14:09 12.3 °C -2.4 °C 1027 hPa WSW 4.7 km/h 11.3 km/h 36 % 0 mm
14:14 12.2 °C -2.1 °C 1027 hPa South 7.1 km/h 11.1 km/h 37 % 0 mm
14:19 12.1 °C -2.2 °C 1027 hPa SW 11.6 km/h 18.5 km/h 37 % 0 mm
14:24 11.8 °C -1.3 °C 1027 hPa SSW 11.1 km/h 16.7 km/h 40 % 0 mm
14:29 11.7 °C -1.5 °C 1027 hPa SSW 13.2 km/h 16.7 km/h 40 % 0 mm
14:34 11.6 °C 0 °C 1027 hPa SE 7.9 km/h 11.1 km/h 45 % 0 mm
14:39 11.3 °C 0.1 °C 1027 hPa SSW 6.8 km/h 14.8 km/h 46 % 0 mm
14:44 11.2 °C 0.6 °C 1027 hPa SSE 11.1 km/h 13 km/h 48 % 0 mm
14:49 11.1 °C -0.2 °C 1027 hPa South 15.4 km/h 25.9 km/h 46 % 0 mm
14:54 10.8 °C -0.1 °C 1027 hPa SW 9.5 km/h 18.5 km/h 47 % 0 mm
14:59 10.7 °C -0.4 °C 1027.3 hPa South 12.2 km/h 18.5 km/h 46 % 0 mm
15:04 10.6 °C -0.2 °C 1027 hPa SSW 12.1 km/h 18.5 km/h 47 % 0 mm
15:09 10.6 °C -0.6 °C 1027.3 hPa SSW 6 km/h 13 km/h 46 % 0 mm
15:14 10.4 °C -0.4 °C 1027.3 hPa SSW 9.8 km/h 20.9 km/h 47 % 0 mm
15:15 10.4 °C -0.4 °C 1027.3 hPa South 12.7 km/h 19.3 km/h 47 % 0 mm
15:20 10.4 °C -0.1 °C 1027.3 hPa SSW 8 km/h 13 km/h 48 % 0 mm
15:25 10.3 °C -0.2 °C 1027 hPa SW 16.3 km/h 25.9 km/h 48 % 0 mm
15:30 10.3 °C 0 °C 1027 hPa SSW 6.8 km/h 16.7 km/h 49 % 0 mm
15:35 10.3 °C 0.3 °C 1027 hPa SSE 7.4 km/h 13 km/h 50 % 0 mm
15:40 10.2 °C 0.5 °C 1027 hPa SW 8.9 km/h 14.8 km/h 51 % 0 mm
15:45 10.2 °C 0.7 °C 1027 hPa SW 9.7 km/h 16.1 km/h 52 % 0 mm
15:51 10.2 °C 1 °C 1027 hPa SSE 6.4 km/h 9.7 km/h 53 % 0 mm
15:56 10.1 °C 0.9 °C 1027 hPa SSW 11.3 km/h 18.5 km/h 53 % 0 mm
16:01 10.1 °C 1.2 °C 1027 hPa South 13.7 km/h 20.4 km/h 54 % 0 mm
16:06 9.9 °C 1.6 °C 1027 hPa South 10.3 km/h 18.5 km/h 56 % 0 mm
16:11 9.7 °C 1.6 °C 1027 hPa SSW 8.2 km/h 16.7 km/h 57 % 0 mm
16:16 9.6 °C 1.7 °C 1027 hPa South 7.9 km/h 19.3 km/h 58 % 0 mm
16:21 9.5 °C 1.9 °C 1027 hPa South 11.3 km/h 14.8 km/h 59 % 0 mm
16:26 9.4 °C 2.1 °C 1027 hPa SSW 9.7 km/h 20.4 km/h 60 % 0 mm
16:31 9.3 °C 2.2 °C 1027 hPa South 10.8 km/h 16.7 km/h 61 % 0 mm
16:36 9.3 °C 2.4 °C 1027 hPa South 8.7 km/h 16.7 km/h 62 % 0 mm
16:41 9.2 °C 2.3 °C 1027 hPa South 6.9 km/h 14.8 km/h 62 % 0 mm
16:46 9.2 °C 2.5 °C 1027 hPa SW 11.3 km/h 18.5 km/h 63 % 0 mm
16:51 9.1 °C 2.7 °C 1027 hPa South 10.9 km/h 16.7 km/h 64 % 0 mm
16:56 9.1 °C 2.8 °C 1027.3 hPa SSW 9.2 km/h 18.5 km/h 65 % 0 mm
17:01 9 °C 2.8 °C 1027.3 hPa SSW 5.1 km/h 13 km/h 65 % 0 mm
17:06 8.9 °C 2.9 °C 1027.3 hPa SW 8.9 km/h 13 km/h 66 % 0 mm
17:11 8.8 °C 2.8 °C 1027.3 hPa South 6 km/h 11.3 km/h 66 % 0 mm
17:16 8.7 °C 2.7 °C 1027.3 hPa South 9 km/h 14.8 km/h 66 % 0 mm
17:21 8.6 °C 2.8 °C 1027.7 hPa SSW 7.1 km/h 11.3 km/h 67 % 0 mm
17:26 8.5 °C 2.7 °C 1027.3 hPa South 7.9 km/h 14.8 km/h 67 % 0 mm
17:31 8.4 °C 2.6 °C 1027.7 hPa SSW 6.4 km/h 14.8 km/h 67 % 0 mm
17:37 8.3 °C 2.8 °C 1027.3 hPa SSW 5.8 km/h 13 km/h 68 % 0 mm
17:42 8.2 °C 2.7 °C 1027.3 hPa SSW 8.5 km/h 16.7 km/h 68 % 0 mm
17:47 8.2 °C 2.8 °C 1027.3 hPa South 6.3 km/h 11.1 km/h 69 % 0 mm
17:52 8.1 °C 2.8 °C 1027.3 hPa SSW 7.4 km/h 11.1 km/h 69 % 0 mm
17:57 8.1 °C 2.7 °C 1027.7 hPa South 5.6 km/h 7.4 km/h 69 % 0 mm
18:02 7.9 °C 2.8 °C 1027.7 hPa SSW 8 km/h 11.3 km/h 70 % 0 mm
18:07 7.9 °C 2.9 °C 1027.7 hPa SSW 5.6 km/h 16.7 km/h 71 % 0 mm
18:12 7.8 °C 2.9 °C 1027.7 hPa South 8.7 km/h 12.9 km/h 71 % 0 mm
18:17 7.8 °C 3.1 °C 1027.7 hPa SSW 4.8 km/h 11.1 km/h 72 % 0 mm
18:22 7.7 °C 3 °C 1028 hPa South 6.4 km/h 9.7 km/h 72 % 0 mm
18:27 7.7 °C 3.1 °C 1028 hPa WSW 4.2 km/h 11.1 km/h 73 % 0 mm
18:32 7.6 °C 3.1 °C 1028 hPa SSW 5.6 km/h 9.3 km/h 73 % 0 mm
18:37 7.6 °C 3.1 °C 1027.7 hPa SW 4.7 km/h 7.4 km/h 73 % 0 mm
18:42 7.5 °C 3.2 °C 1028 hPa SSW 5.1 km/h 7.4 km/h 74 % 0 mm
18:47 7.5 °C 3.2 °C 1028 hPa South 4 km/h 7.4 km/h 74 % 0 mm
18:52 7.4 °C 3.1 °C 1028 hPa SW 4.7 km/h 11.1 km/h 74 % 0 mm
18:57 7.4 °C 3.1 °C 1028 hPa SW 6.4 km/h 9.3 km/h 74 % 0 mm
19:02 7.3 °C 3.2 °C 1028 hPa South 5.8 km/h 9.3 km/h 75 % 0 mm
19:07 7.3 °C 3.2 °C 1028 hPa SW 4.7 km/h 9.7 km/h 75 % 0 mm
19:12 7.3 °C 3.2 °C 1028 hPa SW 6.4 km/h 11.3 km/h 75 % 0 mm
19:17 7.3 °C 3.2 °C 1028 hPa SSW 5 km/h 13 km/h 75 % 0 mm
19:22 7.4 °C 3.1 °C 1028.3 hPa WSW 3.7 km/h 9.3 km/h 74 % 0 mm
19:27 7.4 °C 3.1 °C 1028.3 hPa SSW 4.5 km/h 8 km/h 74 % 0 mm
19:33 7.4 °C 3.1 °C 1028.3 hPa SW 7.1 km/h 11.1 km/h 74 % 0 mm
19:38 7.4 °C 3.1 °C 1028.3 hPa SW 6.4 km/h 9.3 km/h 74 % 0 mm
19:43 7.4 °C 3.1 °C 1028 hPa SSW 6.9 km/h 11.1 km/h 74 % 0 mm
19:48 7.4 °C 3.1 °C 1028 hPa SW 5.5 km/h 7.4 km/h 74 % 0 mm
19:53 7.5 °C 3.2 °C 1028 hPa WSW 3.7 km/h 6.4 km/h 74 % 0 mm
19:58 7.5 °C 2.9 °C 1028.3 hPa SSW 7.2 km/h 11.1 km/h 73 % 0 mm
20:03 7.6 °C 2.8 °C 1028.3 hPa SSW 6.9 km/h 13 km/h 72 % 0 mm
20:08 7.7 °C 2.9 °C 1028 hPa SSW 6.9 km/h 13 km/h 72 % 0 mm
20:13 7.7 °C 2.8 °C 1028 hPa SSW 1.9 km/h 5.6 km/h 71 % 0 mm
20:18 7.8 °C 2.7 °C 1028 hPa SSW 6.6 km/h 11.1 km/h 70 % 0 mm
20:23 7.8 °C 2.7 °C 1028 hPa SW 4.8 km/h 12.9 km/h 70 % 0 mm
20:28 7.8 °C 2.7 °C 1028 hPa SW 4.8 km/h 9.7 km/h 70 % 0 mm
20:33 7.9 °C 2.6 °C 1028 hPa SW 3.9 km/h 9.3 km/h 69 % 0 mm
20:38 7.9 °C 2.6 °C 1028 hPa SW 3.2 km/h 11.3 km/h 69 % 0 mm
20:43 7.8 °C 2.5 °C 1028 hPa SW 3.2 km/h 9.7 km/h 69 % 0 mm
20:48 7.8 °C 2.5 °C 1028 hPa SW 4.8 km/h 9.7 km/h 69 % 0 mm
20:53 7.8 °C 2.5 °C 1027.7 hPa SW 3.2 km/h 11.3 km/h 69 % 0 mm
20:58 7.8 °C 2.5 °C 1027.7 hPa SW 5 km/h 9.3 km/h 69 % 0 mm
21:03 7.8 °C 2.4 °C 1027.7 hPa SSW 4.8 km/h 12.9 km/h 69 % 0 mm
21:08 7.8 °C 2.4 °C 1028 hPa SSW 8 km/h 11.3 km/h 69 % 0 mm
21:13 7.8 °C 2.4 °C 1027.7 hPa SSW 7.2 km/h 11.1 km/h 69 % 0 mm
21:18 7.8 °C 2.4 °C 1028 hPa SW 4.8 km/h 9.7 km/h 69 % 0 mm
21:23 7.8 °C 2.7 °C 1028 hPa SW 3.2 km/h 11.3 km/h 70 % 0 mm
21:28 7.7 °C 2.6 °C 1028 hPa SSW 3.2 km/h 11.3 km/h 70 % 0 mm
21:33 7.7 °C 2.6 °C 1028 hPa SW 5 km/h 9.3 km/h 70 % 0 mm
21:38 7.6 °C 2.7 °C 1028 hPa SW 3.2 km/h 6.4 km/h 71 % 0 mm
21:43 7.6 °C 2.6 °C 1028 hPa SW 4.8 km/h 9.7 km/h 71 % 0 mm
21:48 7.5 °C 2.6 °C 1028.3 hPa SW 3.2 km/h 9.7 km/h 71 % 0 mm
21:53 7.4 °C 2.7 °C 1028.3 hPa SSW 4.8 km/h 12.9 km/h 72 % 0 mm
21:58 7.3 °C 2.6 °C 1028 hPa South 5 km/h 7.4 km/h 72 % 0 mm
22:03 7.3 °C 2.8 °C 1028 hPa SW 2.9 km/h 9.3 km/h 73 % 0 mm
22:08 7.3 °C 2.8 °C 1028.3 hPa SSW 3.2 km/h 5.6 km/h 73 % 0 mm
22:13 7.2 °C 2.7 °C 1028 hPa SW 2.3 km/h 9.3 km/h 73 % 0 mm
22:18 7.2 °C 2.8 °C 1028.3 hPa SSW 3.4 km/h 7.4 km/h 74 % 0 mm
22:23 7.1 °C 2.8 °C 1028.3 hPa SW 3.1 km/h 5.6 km/h 74 % 0 mm
22:28 7.1 °C 2.9 °C 1028.3 hPa SW 1.8 km/h 3.7 km/h 75 % 0 mm
22:33 6.9 °C 2.8 °C 1028.3 hPa SSW 3.1 km/h 6.4 km/h 75 % 0 mm
22:38 6.9 °C 2.9 °C 1028.3 hPa SW 5.3 km/h 9.3 km/h 76 % 0 mm
22:43 6.8 °C 2.9 °C 1028.3 hPa SSW 4.2 km/h 5.6 km/h 76 % 0 mm
22:48 6.8 °C 3 °C 1028 hPa SW 3.7 km/h 5.6 km/h 77 % 0 mm
22:53 6.8 °C 3 °C 1028 hPa SSW 2.4 km/h 5.6 km/h 77 % 0 mm
22:58 6.8 °C 3 °C 1028 hPa Calm   5.6 km/h 77 % 0 mm
23:03 6.8 °C 3 °C 1028 hPa WSW 1.8 km/h 5.6 km/h 77 % 0 mm
23:09 6.7 °C 2.9 °C 1028 hPa SW 3.7 km/h 7.4 km/h 77 % 0 mm
23:11 6.7 °C 2.9 °C 1028 hPa WSW 4.8 km/h 7.4 km/h 77 % 0 mm
23:16 6.7 °C 3.2 °C 1028 hPa WSW 2.1 km/h 7.4 km/h 78 % 0 mm
23:21 6.7 °C 3.1 °C 1028 hPa Calm   5.6 km/h 78 % 0 mm
23:26 6.7 °C 3.1 °C 1028 hPa SSW 1.9 km/h 5.6 km/h 78 % 0 mm
23:31 6.7 °C 3.1 °C 1028.3 hPa WSW 3.1 km/h 5.6 km/h 78 % 0 mm
23:36 6.7 °C 3.1 °C 1028.3 hPa WSW 1.8 km/h 5.6 km/h 78 % 0 mm
23:41 6.7 °C 3.1 °C 1028.3 hPa WSW 1.3 km/h 3.7 km/h 78 % 0 mm
23:46 6.6 °C 3.1 °C 1028.3 hPa SW 5 km/h 9.3 km/h 78 % 0 mm
23:51 6.6 °C 3 °C 1028 hPa Calm   1.9 km/h 78 % 0 mm
23:56 6.6 °C 3 °C 1028 hPa Calm   1.9 km/h 78 % 0 mm
Crab Meadow Weather
Compliments of Weather Underground - 3 mb

Script developed by  Jim McMurry - jmcmurry@mwt.net Adapted for the template by  Wim van der Kuil - Leuven-Template.eu

Astronomy: Mercury can get as hot as 800 degrees and can be as cold as 300 degrees below zero.